Regional Weather Roundup
Issued by NWS New Orleans/Baton Rouge, LA

Home | Current Version | Previous Version | Text Only | Print | Product List | Glossary On
Versions: 1 2 3 4 5 6 7 8 9 10 11 12 13 14 15 16 17 18 19 20 21 22 23 24 25 26 27 28 29 30 31 32 33 34 35 36 37 38 39 40 41 42 43 44 45 46 47 48 49 50
731
ASUS44 KLIX 182101
RWRLIX
NEW ORLEANS REGIONAL WEATHER ROUNDUP
NATIONAL WEATHER SERVICE NEW ORLEANS LA
300 PM CST THU DEC 18 2014

NOTE: "FAIR" INDICATES FEW OR NO CLOUDS BELOW 12,000 FEET WITH NO
      SIGNIFICANT WEATHER AND/OR OBSTRUCTIONS TO VISIBILITY.
      SKY/WX - SKY CONDITION AND SIGNIFICANT WEATHER.
      TMP - AIR TEMPERATURE.     DP    - DEWPOINT TEMPERATURE.
      RH  - RELATIVE HUMIDITY.   PRES  - PRESSURE.
      HI  - HEAT INDEX.          WCI   - WIND CHILL INDEX.

*  THESE STATIONS ARE NOT NWS OR FAA STATIONS AND ARE NOT UNDER
   NWS QUALITY CONTROL.

LAZ038-040-048-061>063-065>067-069-182200-
SOUTHEAST LOUISIANA

CITY           SKY/WX    TMP DP  RH WIND       PRES   REMARKS
N.O. AUDUBON     N/A     67  55  65 MISG        N/A
N.O. INTL ARPT CLOUDY    68  54  60 SE7       30.09S
N.O. LAKEFRONT CLOUDY    65  54  67 E6        30.10S
N.O. DOWNTOWN* CLOUDY    66  54  63 S9        30.10S
SLIDELL        CLOUDY    63  51  65 SE7       30.10S
BATON ROUGE    CLOUDY    62  53  72 N6        30.09S
BOOTHVILLE     MOSUNNY   69  56  62 E8        30.10F
BELLE CHASSE   CLOUDY    65  55  70 SE7       30.09S
BOGALUSA*        N/A     68  50  52 CALM      30.11R
GALLIANO*      MOCLDY    69  57  64 MISG      30.10S
NEW ROADS*     LGT RAIN  55  53  94 NE9       30.10F
GONZALES*      NOT AVBL
HAMMOND*       NOT AVBL
HOUMA*         NOT AVBL
PORT FOURCHON* CLEAR     66  59  77 SE13      30.11F

$$

MSZ070-080>082-182200-
SOUTHERN MISSISSIPPI

CITY           SKY/WX    TMP DP  RH WIND       PRES   REMARKS
MCCOMB         LGT RAIN  50  48  93 N8        30.13R FOG
GULFPORT       MOSUNNY   61  47  59 S5        30.11F
BILOXI         MOSUNNY   61  48  62 SE5       30.12S
PASCAGOULA     SUNNY     65  46  50 SE7       30.11S
STENNIS ARPT*  MOSUNNY   61  46  59 E6        30.12S

$$

COASTAL OBSERVATIONS
LAKE AND NEARSHORE STATIONS

STATION/POSITION TIME  TEMP    WIND        PRES    WAVE
                       AIR SEA DIR/SP/G            HT/PER
                 (UTC) (F)     (DEG/KT/KT) (MB)    (FT/S)
PASCAGOULA       2000   61     150/  4/  8 1019.2
WAVELAND YACHT   2000   58     120/  6/  7 1018.9
GRAND ISLE       2000   67 61  110/  5/ 10 1019.3
SOUTHWEST PASS   2000   74                 1019.2
NEW CANAL        2000   66 58  130/  2/  7 1019.2
SHELL BEACH      2000   62 61  110/ 12/ 13 1018.9

OFFSHORE STATIONS

STATION/POSITION TIME  TEMP    WIND        PRES    WAVE
                       AIR SEA DIR/SP/G            HT/PER
                 (UTC) (F)     (DEG/KT/KT) (MB)    (FT/S)
64 S DAUPHIN ISL 2100   67 74  140/  8/ 10 1019.0    1/ 3

$$




USA.gov is the U.S. government's official web portal to all federal, state and local government web resources and services.